Zurück zum Katalog

DELTA 1 DEB

AktivPO
NORAD 21677·DEBRIS·🇺🇸 United States

Gestartet Jun 12, 1975 von Vandenberg Space Force Base

Loading…

Nächste Überflüge (nächste 24 Stunden)

TLE

AktuellSource: Space-Track

Epoche: Sep 14, 2026, 07:15 UTC

1 21677U 75052JD  26257.30266633  .00000019  00000-0  17642-3 0  9996
2 21677  99.9302  16.9426 0477581 349.9152  34.6987 12.71925889639344

Verfolge DELTA 1 DEB in Echtzeit mit AllMySat

Download on the App Store